Weather in Sobinka

Russia / Vladimir Oblast     55°59′37″N   40°01′04″E
temp.,
°C
wind,
m/s
gust,
m/s
humid.,
%
clouds,
%
prec.,
mm/h
press.,
hPa
HPBL,
m
4 july, mon
mon400:00+17ene227777 0.0 101624
03:00+15e01881 0.0 101611
06:00+19nw1276100 0.0 101590
09:00+23nne23605 0.0 1015722
12:00+26nne44475 0.0 10151862
15:00+27nne34400 0.0 10152052
18:00+26nne33470 0.0 10141809
21:00+19e36674 0.0 101592
5 july, tue
tue500:00+16ese22724 0.0 101620
03:00+14se11800 0.0 101611
06:00+17se23731 0.0 101794
09:00+23se23490 0.0 1017655
12:00+27sse21340 0.0 10161743
15:00+29sse11313 0.0 10152111
18:00+28sse234065 0.0 1014627
21:00+21wsw226930 0.1 101532
6 july, wed
wed600:00+17ssw229595 0.1 101538
03:00+16ssw239493 0.1 101553
06:00+18ssw258474 0.0 1015168
09:00+24sw3460100 0.0 1015660
12:00+28sw344771 0.0 10141658
15:00+26wsw2258100 0.0 101351
18:00+28sw3648100 0.0 10121592
21:00+18ssw119478 2.8 101318
7 july, thu
thu700:00+18s3695100 0.6 1013115
03:00+17s3896100 0.7 1012183
06:00+19ssw389578 0.2 1012269
09:00+23wsw577457 0.3 1013847
12:00+25wsw466148 0.0 10141243
15:00+27w455355 0.0 10141421
18:00+25wnw235873 0.1 10141036
21:00+19ne23855 0.8 101533
8 july, fri
fri800:00+17ene228932 0.3 101622
03:00+17ene239391 0.3 101654
06:00+18e2394100 0.4 101688
09:00+20e118934 0.4 1016162
12:00+25sw236671 2.2 1016803
15:00+27wsw3555100 2.5 10151437
18:00+25w24625 0.3 10151027
21:00+20nw2288100 2.1 101517